Location: Lugrin
(46.4033°N, 6.6674°E)
Time: 11:19:45
(UTC+00:00)

CSL-04 Rocket - Pass Details

Date: 18 September 2020
Orbit: 806 x 860 km, 98.9° (Epoch: 24 October)

Event Time Altitude Azimuth Distance (km) Brightness Sun altitude
Rises 18:25:28 0° 164° (SSE) 3,352 6.5 -8.9°
Reaches altitude 10° 18:27:48 10° 165° (SSE) 2,431 5.8 -9.3°
Maximum altitude 18:33:12 88° 253° (WSW) 847 3.7 -10.2°
Drops below altitude 10° 18:38:44 10° 345° (NNW) 2,483 6.5 -11.1°
Sets 18:41:07 0° 346° (NNW) 3,430 7.3 -11.5°
